TimeWET,TemperatureF,Dew PointF,Humidity,Sea Level PressureIn,VisibilityMPH,Wind Direction,Wind SpeedMPH,Gust SpeedMPH,PrecipitationIn,Events,Conditions,WindDirDegrees,DateUTC
12:00 AM,63,56,70,30.12,5,West,2.3,,,,Scattered Clouds,260,2012-10-06 00:00:00
12:00 AM,62.6,55.4,77,30.15,5.0,West,2.3,-,N/A,,Unknown,260,2012-10-06 00:00:00
1:00 AM,62.6,55.4,77,30.15,5.0,SSE,3.5,-,N/A,,Unknown,160,2012-10-06 01:00:00
2:00 AM,62.6,57.2,82,30.12,5.0,SE,3.5,-,N/A,,Clear,140,2012-10-06 02:00:00
3:00 AM,63,55,69,30.08,5,ESE,6.9,,,,Scattered Clouds,120,2012-10-06 03:00:00
3:00 AM,62.6,55.4,77,30.12,5.0,ESE,6.9,-,N/A,,Unknown,120,2012-10-06 03:00:00
5:00 AM,60.8,53.6,77,30.12,5.0,East,4.6,-,N/A,,Unknown,100,2012-10-06 05:00:00
6:00 AM,58,53,78,30.12,5,Calm,Calm,,,,Scattered Clouds,,2012-10-06 06:00:00
6:00 AM,59.0,53.6,82,30.12,5.0,North,1.2,-,N/A,,Unknown,0,2012-10-06 06:00:00
7:00 AM,62.6,55.4,77,30.15,5.0,SE,5.8,-,N/A,,Unknown,130,2012-10-06 07:00:00
8:00 AM,66.2,55.4,68,30.15,5.0,ESE,6.9,-,N/A,,Unknown,110,2012-10-06 08:00:00
9:00 AM,72,58,53,30.09,5,NE,3.5,,,,,50,2012-10-06 09:00:00
9:00 AM,73.4,59.0,61,30.15,-9999.0,NE,3.5,-,N/A,,Clear,50,2012-10-06 09:00:00
10:00 AM,75.2,59.0,57,30.15,5.0,North,4.6,-,N/A,,Clear,10,2012-10-06 10:00:00
11:00 AM,80.6,59.0,48,30.15,5.0,NNE,5.8,-,N/A,,Partly Cloudy,30,2012-10-06 11:00:00
12:00 PM,79,59,40,30.05,6,NNW,5.8,,,,Scattered Clouds,340,2012-10-06 12:00:00
12:00 PM,78.8,59.0,51,30.15,5.0,NNW,5.8,-,N/A,,Partly Cloudy,340,2012-10-06 12:00:00
1:00 PM,80.6,59.0,48,30.12,5.0,NW,3.5,-,N/A,,Partly Cloudy,320,2012-10-06 13:00:00
2:00 PM,82.4,59.0,45,30.12,6.2,North,3.5,-,N/A,,Partly Cloudy,350,2012-10-06 14:00:00
3:00 PM,83,59,33,30.01,6,WNW,5.8,,,,Scattered Clouds,290,2012-10-06 15:00:00
3:00 PM,82.4,59.0,45,30.12,6.2,WNW,5.8,-,N/A,,Partly Cloudy,290,2012-10-06 15:00:00
4:00 PM,84.2,59.0,42,30.12,6.2,NW,6.9,-,N/A,,Partly Cloudy,310,2012-10-06 16:00:00
5:00 PM,80.6,59.0,48,30.15,6.2,NW,8.1,-,N/A,,Partly Cloudy,320,2012-10-06 17:00:00
6:00 PM,77,58,41,30.07,6,NW,6.9,,,,Scattered Clouds,320,2012-10-06 18:00:00
6:00 PM,77.0,57.2,50,30.18,6.2,NW,6.9,-,N/A,,Scattered Clouds,320,2012-10-06 18:00:00
7:00 PM,73.4,59.0,61,30.18,-9999.0,WNW,6.9,-,N/A,,Clear,300,2012-10-06 19:00:00
8:00 PM,71.6,59.0,64,30.18,-9999.0,NW,3.5,-,N/A,,Clear,320,2012-10-06 20:00:00
9:00 PM,68,58,61,30.14,6,SE,2.3,,,,Clear,140,2012-10-06 21:00:00
9:00 PM,68.0,59.0,73,30.21,-9999.0,SE,2.3,-,N/A,,Clear,140,2012-10-06 21:00:00
10:00 PM,68.0,57.2,68,30.18,-9999.0,Calm,Calm,-,N/A,,Clear,0,2012-10-06 22:00:00
11:00 PM,68.0,57.2,68,30.18,-9999.0,SE,5.8,-,N/A,,Clear,130,2012-10-06 23:00:00